Time,TemperatureF,DewpointF,PressureIn,WindDirection,WindDirectionDegrees,WindSpeedMPH,WindSpeedGustMPH,Humidity,HourlyPrecipIn,Conditions,Clouds,dailyrainin,SolarRadiationWatts/m^2,SoftwareType,DateUTC
2013-03-04 00:00:00,20.0,-99.9,-100.00,North,-999,-999.0,-999.0,-999,-99.99,,,-99.99,99.099998,,2013-03-04 08:00:00,
2013-03-04 00:53:00,20.0,-99.9,-100.00,North,-999,-999.0,-999.0,-999,-99.99,,,-99.99,99.099998,,2013-03-04 08:53:00,
2013-03-04 01:00:00,23.0,12.0,-100.00,NNW,340,2.0,2.0,61,-99.99,,,-99.99,-0.200000,,2013-03-04 09:00:00,
2013-03-04 01:52:00,23.0,12.0,-100.00,NNW,340,2.0,2.0,61,-99.99,,,-99.99,-0.200000,,2013-03-04 09:52:00,
2013-03-04 02:00:00,24.0,11.0,-100.00,North,5,2.0,3.0,57,-99.99,,,-99.99,-0.200000,,2013-03-04 10:00:00,
2013-03-04 03:00:00,24.0,11.0,-100.00,NE,40,2.0,3.0,59,-99.99,,,-99.99,-0.200000,,2013-03-04 11:00:00,
2013-03-04 03:52:00,24.0,11.0,-100.00,NE,40,2.0,3.0,59,-99.99,,,-99.99,-0.200000,,2013-03-04 11:52:00,
2013-03-04 04:00:00,23.0,12.0,-100.00,North,355,2.0,3.0,62,-99.99,,,-99.99,-0.200000,,2013-03-04 12:00:00,
2013-03-04 04:53:00,23.0,12.0,-100.00,North,355,2.0,3.0,62,-99.99,,,-99.99,-0.200000,,2013-03-04 12:53:00,
2013-03-04 05:00:00,23.0,12.0,-100.00,North,0,2.0,4.0,62,-99.99,,,-99.99,-0.200000,,2013-03-04 13:00:00,
2013-03-04 05:52:00,23.0,12.0,-100.00,North,0,2.0,4.0,62,-99.99,,,-99.99,-0.200000,,2013-03-04 13:52:00,
2013-03-04 06:00:00,23.0,14.0,-100.00,North,2,3.0,5.0,66,-99.99,,,-99.99,-0.200000,,2013-03-04 14:00:00,
2013-03-04 06:52:00,23.0,14.0,-100.00,North,2,3.0,5.0,66,-99.99,,,-99.99,-0.200000,,2013-03-04 14:52:00,
2013-03-04 07:00:00,22.0,14.0,-100.00,North,353,3.0,4.0,69,-99.99,,,0.00,-0.200000,,2013-03-04 15:00:00,
2013-03-04 07:52:00,22.0,14.0,-100.00,North,353,3.0,4.0,69,-99.99,,,0.00,-0.200000,,2013-03-04 15:52:00,
2013-03-04 08:00:00,25.0,16.0,-100.00,NE,43,1.0,4.0,68,-99.99,,,0.00,-0.200000,,2013-03-04 16:00:00,
2013-03-04 08:52:00,25.0,16.0,-100.00,NE,43,1.0,4.0,68,-99.99,,,0.00,-0.200000,,2013-03-04 16:52:00,
2013-03-04 09:00:00,29.0,18.0,-100.00,ENE,64,2.0,3.0,63,-99.99,,,0.00,-0.200000,,2013-03-04 17:00:00,
2013-03-04 09:52:00,29.0,18.0,-100.00,ENE,64,2.0,3.0,63,-99.99,,,0.00,-0.200000,,2013-03-04 17:52:00,
2013-03-04 10:00:00,31.0,18.0,-100.00,ESE,109,1.0,4.0,56,-99.99,,,0.00,263.500000,,2013-03-04 18:00:00,
2013-03-04 10:52:00,31.0,18.0,-100.00,ESE,109,1.0,4.0,56,-99.99,,,0.00,263.500000,,2013-03-04 18:52:00,
2013-03-04 11:00:00,30.0,15.0,-100.00,ESE,118,2.0,4.0,53,-99.99,,,0.00,405.100006,,2013-03-04 19:00:00,
2013-03-04 11:52:00,30.0,15.0,-100.00,ESE,118,2.0,4.0,53,-99.99,,,0.00,405.100006,,2013-03-04 19:52:00,
2013-03-04 12:00:00,32.0,16.0,-100.00,SSE,157,2.0,6.0,51,-99.99,,,0.00,546.200012,,2013-03-04 20:00:00,
2013-03-04 12:52:00,32.0,16.0,-100.00,SSE,157,2.0,6.0,51,-99.99,,,0.00,546.200012,,2013-03-04 20:52:00,
2013-03-04 13:00:00,34.0,16.0,-100.00,SW,232,2.0,5.0,47,-99.99,,,0.00,654.700012,,2013-03-04 21:00:00,
2013-03-04 13:52:00,34.0,16.0,-100.00,SW,232,2.0,5.0,47,-99.99,,,0.00,654.700012,,2013-03-04 21:52:00,
2013-03-04 14:00:00,34.0,16.0,-100.00,ESE,118,2.0,5.0,46,-99.99,,,0.00,615.599976,,2013-03-04 22:00:00,
2013-03-04 14:52:00,34.0,16.0,-100.00,ESE,118,2.0,5.0,46,-99.99,,,0.00,615.599976,,2013-03-04 22:52:00,
2013-03-04 15:00:00,29.0,14.0,-100.00,South,185,1.0,3.0,53,-99.99,,,0.00,243.699997,,2013-03-04 23:00:00,
2013-03-04 15:52:00,29.0,14.0,-100.00,South,185,1.0,3.0,53,-99.99,,,0.00,243.699997,,2013-03-04 23:52:00,
2013-03-04 16:00:00,30.0,17.0,-100.00,ESE,103,1.0,3.0,58,-99.99,,,0.00,182.600006,,2013-03-05 00:00:00,
2013-03-04 16:52:00,30.0,17.0,-100.00,ESE,103,1.0,3.0,58,-99.99,,,0.00,182.600006,,2013-03-05 00:52:00,
2013-03-04 17:00:00,28.0,17.0,-100.00,East,95,0.0,3.0,61,-99.99,,,0.00,94.699997,,2013-03-05 01:00:00,
2013-03-04 17:52:00,28.0,17.0,-100.00,East,95,0.0,3.0,61,-99.99,,,0.00,94.699997,,2013-03-05 01:52:00,
2013-03-04 18:00:00,25.0,15.0,-100.00,NW,316,0.0,2.0,65,-99.99,,,0.00,20.900000,,2013-03-05 02:00:00,
2013-03-04 18:52:00,25.0,15.0,-100.00,NW,316,0.0,2.0,65,-99.99,,,0.00,20.900000,,2013-03-05 02:52:00,
2013-03-04 19:00:00,23.0,14.0,-100.00,West,276,0.0,1.0,69,-99.99,,,0.00,0.200000,,2013-03-05 03:00:00,
2013-03-04 19:52:00,23.0,14.0,-100.00,West,276,0.0,1.0,69,-99.99,,,0.00,0.200000,,2013-03-05 03:52:00,
2013-03-04 20:00:00,23.0,15.0,-100.00,NW,316,0.0,2.0,73,-99.99,,,0.00,-0.200000,,2013-03-05 04:00:00,
2013-03-04 20:52:00,23.0,15.0,-100.00,NW,316,0.0,2.0,73,-99.99,,,0.00,-0.200000,,2013-03-05 04:52:00,
2013-03-04 22:00:00,20.0,13.0,-100.00,WNW,290,0.0,1.0,73,-99.99,,,0.00,-0.200000,,2013-03-05 06:00:00,
2013-03-04 22:32:00,20.0,13.0,-100.00,WNW,290,0.0,1.0,73,-99.99,,,0.00,-0.200000,,2013-03-05 06:32:00,
2013-03-04 22:42:00,20.0,13.0,-100.00,WNW,290,0.0,1.0,73,-99.99,,,0.00,-0.200000,,2013-03-05 06:42:00,
2013-03-04 22:52:00,20.0,13.0,-100.00,WNW,290,0.0,1.0,73,-99.99,,,0.00,-0.200000,,2013-03-05 06:52:00,
2013-03-04 23:00:00,20.0,12.0,-100.00,West,274,0.0,1.0,69,-99.99,,,0.00,-0.200000,,2013-03-05 07:00:00,
2013-03-04 23:52:00,20.0,12.0,-100.00,West,274,0.0,1.0,69,-99.99,,,0.00,-0.200000,,2013-03-05 07:52:00,